Philadelphia, PA

9:25 AM EST on December 05, 2019 (GMT -0500)
Philadelphia International

Weather History for KPHL - July, 2019

Change the Weather History Date:

Monday, July 15, 2019

  Actual Average Record
Temperature  
Mean Temperature 79 °F 78 °F  
Max Temperature 87 °F 87 °F 103 °F (1995)
Min Temperature 70 °F 70 °F 56 °F (1940)
Degree Days  
Heating Degree Days 0 0  
Month to date heating degree days 0 0  
Since 1 June heating degree days 3 11  
Since 1 July heating degree days 0 0  
Cooling Degree Days 14 13  
Month to date cooling degree days 224 192  
Year to date cooling degree days 651 541  
Since 1 June cooling degree days 501 450  
Growing Degree Days 28 (Base 50)    
Moisture  
Dew Point 58 °F    
Average Humidity 50    
Maximum Humidity 66    
Minimum Humidity 34    
Precipitation  
Precipitation 0.00 in 0.15 in 2.96 in (1926)
Month to date precipitation 4.59 2.06  
Year to date precipitation 31.81 22.23  
Snow  
Snow 0.00 in 0.00 in 0.00 in (1870)
Month to date snowfall 0.0 0.0  
Since 1 June snowfall 0.0 0.0  
Since 1 July snowfall 0.0 0.0  
Snow Depth 0.00 in    
Sea Level Pressure  
Sea Level Pressure 30.06 in    
Wind  
Wind Speed 8 mph (NW)    
Max Wind Speed 15 mph    
Max Gust Speed 29 mph    
Visibility 10 miles    
Events      
T = Trace of Precipitation, MM = Missing Value Source: NWS Daily Summary

Daily Weather History Graph

Daily Weather History Graph

Search for Another Location

Airport or City:

Astronomy

Jul. 15, 2019 Rise Set
Actual Time 5:44 AM EDT 8:28 PM EDT
Civil Twilight 5:13 AM EDT 9:00 PM EDT
Nautical Twilight 4:33 AM EDT 9:39 PM EDT
Astronomical Twilight 3:48 AM EDT 10:24 PM EDT
Moon 7:43 PM EDT (7/15) 4:30 AM EDT (7/15)
Length of Visible Light 15h 47m
Length of Day
14h 43m
Waxing Gibbous, 98% of the Moon is Illuminated
Jul 15
Waxing Gibbous
Jul 16
Full
Jul 24
Last Quarter
Jul 31
New
Aug 7
First Quarter

Hourly Weather History & Observations

Time (EDT) Temp. Heat Index Dew Point Humidity Pressure Visibility Wind Dir Wind Speed Gust Speed Precip Events Conditions
12:54 AM 75.0 °F - 59.0 °F 57% 30.03 in 10.0 mi North 3.5 mph - N/A   Partly Cloudy
1:54 AM 73.9 °F - 59.0 °F 59% 30.04 in 10.0 mi North 8.1 mph - N/A   Clear
2:54 AM 73.9 °F - 59.0 °F 59% 30.04 in 10.0 mi North 6.9 mph - N/A   Scattered Clouds
3:54 AM 73.0 °F - 59.0 °F 61% 30.05 in 10.0 mi NNE 5.8 mph - N/A   Mostly Cloudy
4:54 AM 72.0 °F - 59.0 °F 64% 30.06 in 10.0 mi North 5.8 mph - N/A   Scattered Clouds
5:54 AM 71.1 °F - 57.9 °F 63% 30.07 in 10.0 mi NNE 6.9 mph - N/A   Scattered Clouds
6:54 AM 73.0 °F - 57.9 °F 59% 30.09 in 10.0 mi NW 5.8 mph - N/A   Scattered Clouds
7:54 AM 73.9 °F - 57.9 °F 57% 30.09 in 10.0 mi NNE 9.2 mph - N/A   Partly Cloudy
8:54 AM 77.0 °F - 57.9 °F 52% 30.10 in 10.0 mi North 8.1 mph - N/A   Partly Cloudy
9:54 AM 79.0 °F - 59.0 °F 50% 30.10 in 10.0 mi SE 5.8 mph - N/A   Scattered Clouds
10:54 AM 80.1 °F 80.6 °F 57.9 °F 47% 30.10 in 10.0 mi East 3.5 mph - N/A   Scattered Clouds
11:54 AM 82.0 °F 81.7 °F 57.0 °F 42% 30.09 in 10.0 mi NNW 8.1 mph - N/A   Partly Cloudy
12:54 PM 84.0 °F 83.3 °F 57.0 °F 40% 30.07 in 10.0 mi West 11.5 mph - N/A   Scattered Clouds
1:54 PM 84.0 °F 82.9 °F 55.0 °F 37% 30.06 in 10.0 mi NW 11.5 mph - N/A   Mostly Cloudy
2:54 PM 84.9 °F 83.6 °F 55.0 °F 36% 30.04 in 10.0 mi North - - N/A   Scattered Clouds
3:29 PM 84.9 °F 83.6 °F 55.0 °F 36% 30.04 in 10.0 mi WNW 5.8 mph 16.1 mph N/A   Scattered Clouds
3:54 PM 87.1 °F 85.9 °F 57.0 °F 36% 30.04 in 10.0 mi WNW 11.5 mph 19.6 mph N/A   Scattered Clouds
4:54 PM 87.1 °F 85.7 °F 55.9 °F 35% 30.03 in 10.0 mi West 10.4 mph - N/A   Scattered Clouds
5:54 PM 86.0 °F 84.5 °F 55.0 °F 35% 30.02 in 10.0 mi WNW 9.2 mph - N/A   Scattered Clouds
6:54 PM 86.0 °F 84.9 °F 57.0 °F 37% 30.02 in 10.0 mi WNW 10.4 mph - N/A   Scattered Clouds
7:54 PM 84.9 °F 83.9 °F 57.0 °F 38% 30.04 in 10.0 mi NW 8.1 mph - N/A   Mostly Cloudy
8:54 PM 82.9 °F 82.6 °F 57.9 °F 42% 30.04 in 10.0 mi WNW 6.9 mph - N/A   Mostly Cloudy
9:54 PM 82.0 °F 82.0 °F 57.9 °F 44% 30.06 in 10.0 mi West 5.8 mph - N/A   Mostly Cloudy
10:54 PM 80.1 °F 80.7 °F 59.0 °F 48% 30.06 in 10.0 mi West 5.8 mph - N/A   Mostly Cloudy
11:54 PM 78.1 °F - 62.1 °F 58% 30.07 in 10.0 mi SW 5.8 mph - N/A   Mostly Cloudy